This is the latest recevied weather packets stored in our database for station/object WE3WEE. If no packets are shown the sender has not sent any weather packets the latest 10 day(s).
| Time | Temp. | Humidity | Pressure | Rain* | Wind** | Luminosity | Snow |
|---|---|---|---|---|---|---|---|
| 1777819058 | 8.89° C | 46% | 1014.8 hPa | 0 mm | - | - | - |
| 1777818755 | 8.89° C | 47% | 1014.8 hPa | 0 mm | - | - | - |
| 1777818452 | 8.89° C | 45% | 1014.8 hPa | 0 mm | - | - | - |
| 1777818148 | 9.44° C | 47% | 1014.8 hPa | 0 mm | - | - | - |
| 1777817845 | 8.89° C | 45% | 1014.8 hPa | 0 mm | - | - | - |
| 1777817543 | 8.89° C | 47% | 1013.8 hPa | 0 mm | - | - | - |
| 1777817239 | 8.89° C | 49% | 1013.8 hPa | 0 mm | - | - | - |
| 1777816937 | 8.33° C | 47% | 1013.8 hPa | 0 mm | - | - | - |
| 1777816633 | 8.33° C | 49% | 1013.8 hPa | 0 mm | - | - | - |
| 1777816330 | 8.33° C | 50% | 1014.8 hPa | 0 mm | - | - | - |
| 1777816027 | 7.78° C | 52% | 1014.8 hPa | 0 mm | - | - | - |
| 1777815725 | 7.78° C | 52% | 1014.8 hPa | 0 mm | - | - | - |
| 1777815422 | 7.78° C | 53% | 1014.8 hPa | 0 mm | - | - | - |
| 1777815119 | 7.78° C | 56% | 1014.8 hPa | 0 mm | - | - | - |
| 1777814815 | 7.78° C | 56% | 1014.8 hPa | 0 mm | - | - | - |
| 1777814512 | 7.22° C | 57% | 1014.8 hPa | 0 mm | - | - | - |
| 1777814209 | 7.22° C | 55% | 1014.8 hPa | 0 mm | - | - | - |
| 1777813906 | 7.22° C | 57% | 1014.8 hPa | 0 mm | - | - | - |
| 1777813603 | 6.67° C | 57% | 1014.8 hPa | 0 mm | - | - | - |
| 1777813301 | 6.67° C | 57% | 1014.8 hPa | 0 mm | - | - | - |
| 1777812998 | 6.67° C | 59% | 1014.8 hPa | 0 mm | - | - | - |
| 1777812696 | 6.67° C | 59% | 1014.8 hPa | 0 mm | - | - | - |
| 1777812392 | 6.67° C | 63% | 1014.8 hPa | 0 mm | - | - | - |
| 1777812091 | 6.11° C | 62% | 1014.8 hPa | 0 mm | - | - | - |
| 1777811789 | 6.67° C | 63% | 1014.8 hPa | 0 mm | - | - | - |
* Rain latest hour (hover to see other rain measurements)
** Current wind speed in m/s (hover to see current wind gust speed)